STARLINK-34306, 64259

Orbit data source: Space-Track

STARLINK-34306, 64259 is a payload satellite owned by SpaceX/Seattle (US) in LEO that was launched on Wed, 04 Jun 2025 UTC via an FALCON 9 launch vehicle from the Air Force Western Test Range (AFWTR). Payload-class satellites include a variety of spacecraft equipped with specific instruments for various scientific and technological missions. These include communications satellites like Starlink; space stations such as the ISS; scientific satellites like the Hubble; Earth observation satellites from companies like Planet Labs, Umbra, and HawkEye 360; GPS; miniature CubeSats for education and research; and military/defense satellites.

Loading next visibility...
Identifier
64259, 2025-120D
Orbit
LEO
Country
Flag of USUS
Related business
Manufacturer
SpaceX/Seattle
Mission
Operational Commercial Communications
Bus & Motor
STARLINK V2MO, Unknown motor
Mass
575 kg wet, ~530 kg dry
Launch date (UTC)
2025-06-04 (1 year ago)
Launch vehicle
FALCON 9
Launch site
Air Force Western Test Range (AFWTR)
Object type
Payload
Rocket body
Debris
Shape & HBR
Box + 2 Pan, 17.7 m
Radar Cross Section
36.964 m², Large (>1 m²)

Expand to show TLE details & history
Last TLE update: 1 day ago

TLE from 1 day ago
0 STARLINK-34306
1 64259U 25120D   26170.72672469  .00023814  00000-0  71333-3 0  9993
2 64259  53.1592 359.5340 0001137  92.8198 267.2935 15.34416171 59530
Epoch: 2026-06-19T17:26Z
TLE epoch observation values (Epoch: 2026-06-19T17:26:29.013Z)
Latitude
0.00001°
Longitude
-170.03844°
Altitude
463.593 km
Speed
7.636 km/s
True Right ascension
23h 58m 08s
True Declination
0° 00' 00"
Sunlit
Object was in daylight at epoch
Visualization orbit readout
Latitude
Unknown
Longitude
Unknown
Altitude
Unknown
Speed
Unknown
Apparent Right ascension
Unknown
Apparent Declination
Unknown
Sunlit
N/A
Visualization observer readout
Local Sidereal Time
07:12:50
Azimuth
Unknown
Elevation
Unknown
Doppler factor
Unknown
Orbital elements
Apogee altitude
463.69 km
Perigee altitude
462.134 km
Semi-major axis
6,841.049 km
Eccentricity
0.00011
Inclination
53.1592°
RAAN
359.534°
Arg. of periapsis
92.8198°
True anomaly
267.28049°
Mean anomaly
267.2935°
Eccentric anomaly
267.28699°
Mean motion
3.83583 °/min
Orbital period
93.85 mins
BSTAR
0.00071333
Loading maneuver chart data...
Computing Atmospheric mass density...
Loading historical data...
Loading historical data...
Loading historical data...
Loading historical data...
Loading historical data...
Loading historical data...
Loading historical data...

Documentation

Showing up to 5 results
|